Regional Weather Roundup
Issued by NWS

Home | Current Version | Previous Version | Text Only | Print | Product List | Glossary Off
Versions: 1 2 3 4 5 6 7 8 9 10 11 12 13 14 15 16 17 18 19 20 21 22 23 24 25 26 27 28 29 30 31 32 33 34 35 36 37 38 39 40 41 42 43 44 45 46 47 48 49 50

000
ASUS45 KBOI 291910
RWRID
WEATHER ROUNDUP FOR IDAHO
NATIONAL WEATHER SERVICE BOISE ID
100 PM MDT TUE JUL 29 2014

NOTE: "FAIR" INDICATES FEW OR NO CLOUDS BELOW 12000 FEET
WITH NO SIGNIFICANT WEATHER AND/OR OBSTRUCTIONS TO VISIBILITY

IDZ012-014-292000-
SOUTHWEST IDAHO


CITY           SKY/WX    TMP DP  RH WIND       PRES   REMARKS
BOISE          MOSUNNY   88  51  28 NW6       30.09F
CALDWELL       MOSUNNY   90  54  29 NW5       30.09F
MOUNTAIN HOME  PTSUNNY   88  50  27 E5        30.09F
$$

IDZ016-017-292000-
SOUTHCENTRAL IDAHO


CITY           SKY/WX    TMP DP  RH WIND       PRES   REMARKS
BURLEY         PTSUNNY   79  55  43 E9        30.17F
JEROME         PTSUNNY   85  51  31 MISG      30.17F
TWIN FALLS     MOSUNNY   85  50  29 NE10      30.17F
$$

IDZ019>023-292000-
SOUTHEAST IDAHO


CITY           SKY/WX    TMP DP  RH WIND       PRES   REMARKS
IDAHO FALLS    LGT RAIN  67  59  75 SW3       30.25F
POCATELLO      CLOUDY    71  62  73 N6        30.23S
REXBURG        CLOUDY    70  55  59 CALM      30.25S
$$

IDZ006-010-011-018-031-032-292000-
CENTRAL IDAHO MOUNTAINS


CITY           SKY/WX    TMP DP  RH WIND       PRES   REMARKS
MCCALL         MOSUNNY   82  47  29 VRB5      30.23F
HAILEY         PTSUNNY   79  52  38 SE12      30.26F
STANLEY          N/A     81  42  25 N10       30.32F
SALMON         SUNNY     82  50  32 NW5       30.11F
CHALLIS        MOSUNNY   84  45  25 VRB3      30.21F
$$

IDZ002-004-006-007-026-292000-
NORTHERN IDAHO


CITY           SKY/WX    TMP DP  RH WIND       PRES   REMARKS
LEWISTON       SUNNY     95  45  17 W5        30.03F HX  91
LOWELL           N/A     89  52  28 N3        30.02F
COEUR D`ALENE  SUNNY     90  55  31 E3        30.08F
MULLAN PASS    SUNNY     76  34  21 CALM      30.35F
$$


USA.gov is the U.S. government's official web portal to all federal, state and local government web resources and services.